[[{"header":{"parameterUnit":"m.s-1","parameterCategory":1,"la1":30.2992,"la2":30.254,"lo1":-89.0895,"lo2":-89.0443,"dy":0.0025,"dx":0.0025,"nx":19,"ny":19,"refTime":"2026-04-25T21:00:00:Z","depth":0,"parameterNumber":2,"parameterNumberName":"U-component_of_WINDS"},"data":[0,0,0,-4.5875,-4.5878,-4.6039,-4.604,-4.6244,-4.6246,0,0,0,0,0,0,0,0,0,0,0,-4.5825,-4.5826,-4.5875,-4.5879,-4.6039,-4.604,-4.6244,-4.6246,0,0,0,0,0,0,0,0,0,0,0,-4.5824,-4.5826,-4.5827,-4.5879,-4.6039,-4.604,-4.6244,-4.6123,0,0,0,0,0,0,0,0,0,0,-4.5967,-4.5918,-4.5825,-4.5828,-4.588,-4.6039,-4.604,-4.6117,-4.613,-4.617,0,-4.6204,0,-4.6229,-4.626,-4.626,0,0,0,-4.588,-4.5907,-4.5953,-4.5828,-4.5881,-4.6039,-4.5967,-4.6124,-4.614,-4.6188,-4.6207,-4.6215,-4.6232,-4.6261,-4.6262,-4.6485,-4.6486,0,0,-4.5871,-4.5853,-4.5942,-4.5962,-4.5936,-4.5962,-4.5972,-4.6134,-4.6154,-4.6208,-4.622,-4.6235,-4.6262,-4.6264,-4.6485,-4.6486,0,0,0,-4.5845,-4.5846,-4.5888,-4.5954,-4.5983,-4.5967,-4.5978,-4.6147,-4.6162,-4.6222,-4.6238,-4.6263,-4.6266,-4.6484,-4.6485,-4.6513,0,0,0,-4.5839,-4.5831,-4.5884,-4.5874,-4.598,-4.6067,-4.5988,-4.615,-4.6169,-4.6237,-4.6263,-4.6268,-4.6483,-4.6484,-4.651,-4.6529,0,0,0,-4.5815,-4.5828,-4.5851,-4.5873,-4.5942,-4.6064,-4.6089,-4.6155,-4.6179,-4.626,-4.6268,-4.6482,-4.6484,-4.6507,-4.6524,-4.6581,0,0,0,-4.5784,-4.5873,-4.5851,-4.5958,-4.594,-4.6081,-4.6088,-4.6194,-4.6268,-4.6264,-4.6483,-4.6485,-4.6507,-4.6522,-4.6578,-4.6623,-4.6641,0,0,-4.5886,-4.5885,-4.595,-4.5934,-4.6074,-4.6058,-4.6204,-4.6288,-4.6314,-4.6427,-4.6433,-4.6511,-4.6524,-4.658,-4.6752,-4.6766,0,0,0,-4.5976,-4.6021,-4.6063,-4.6132,-4.62,-4.6259,-4.6324,-4.6357,-4.6454,-4.6368,-4.6549,-4.6557,-4.6591,-4.6613,-4.6625,-4.6655,-4.6495,-4.6495,-4.6495,-4.6091,-4.612,-4.6228,-4.6276,-4.6344,-4.6412,-4.6469,-4.6524,-4.6533,-4.6576,-4.6608,-4.6709,-4.6734,-4.6743,-4.6774,-4.6637,-4.6637,-4.6637,-4.6637,-4.6242,-4.631,-4.6322,-4.6431,-4.6461,-4.6554,-4.6624,-4.6628,-4.6718,-4.6686,-4.6717,-4.6677,-4.6758,-4.6786,-4.664,-4.6639,-4.6639,-4.6639,-4.6638,-4.6318,-4.6356,-4.6394,-4.6499,-4.6577,-4.6624,-4.6711,-4.6737,-4.6761,-4.6793,-4.6829,-4.6829,-4.683,-4.6809,-4.6809,-4.681,-4.681,-4.681,-4.6811,-4.638,-4.6423,-4.6493,-4.6575,-4.6623,-4.6691,-4.6763,-4.6812,-4.6873,-4.6885,-4.6885,-4.6889,-4.6762,-4.6727,-4.6816,-4.6815,-4.6814,-4.6814,-4.6813,-4.6517,-4.6491,-4.6598,-4.6647,-4.6746,-4.6822,-4.6856,-4.6954,-4.6999,-4.7041,-4.7041,-4.6943,-4.6943,-4.6934,-4.6905,-4.7035,-4.7035,-4.7035,-4.7035,-4.6579,-4.6583,-4.6699,-4.6776,-4.6855,-4.6896,-4.7018,-4.7076,-4.7132,-4.7162,-4.7149,-4.7114,-4.7104,-4.711,-4.7097,-4.7071,-4.724,-4.724,-4.724,-4.6664,-4.6677,-4.6774,-4.6829,-4.6909,-4.6978,-4.7094,-4.7183,-4.7242,-4.7249,-4.7186,-4.7177,-4.7123,-4.7104,-4.7104,-4.7084,-4.7036,0,0]},{"header":{"parameterUnit":"m.s-1","parameterCategory":1,"la1":30.2992,"la2":30.254,"lo1":-89.0895,"lo2":-89.0443,"dy":0.0025,"dx":0.0025,"nx":19,"ny":19,"refTime":"2026-04-25T21:00:00:Z","depth":0,"parameterNumber":3,"parameterNumberName":"V-component_of_WINDS"},"data":[0,0,0,3.6401,3.6401,3.6382,3.6382,3.6342,3.6342,0,0,0,0,0,0,0,0,0,0,0,3.64,3.64,3.6401,3.6401,3.6382,3.6382,3.6342,3.6342,0,0,0,0,0,0,0,0,0,0,0,3.64,3.64,3.6399,3.6401,3.6382,3.6382,3.6342,3.6362,0,0,0,0,0,0,0,0,0,0,3.6382,3.6375,3.64,3.6399,3.6401,3.6382,3.6382,3.6363,3.636,3.6345,0,3.6332,0,3.6336,3.6338,3.6338,0,0,0,3.6405,3.6377,3.6379,3.6399,3.64,3.6382,3.6392,3.6362,3.6359,3.6342,3.6332,3.633,3.6336,3.6338,3.6338,3.6244,3.6243,0,0,3.6406,3.6392,3.638,3.6377,3.6381,3.6392,3.6391,3.636,3.6347,3.6331,3.633,3.6335,3.6338,3.6337,3.6244,3.6243,0,0,0,3.6406,3.6393,3.6395,3.6378,3.6376,3.6392,3.639,3.6348,3.635,3.6329,3.6335,3.6337,3.6337,3.6245,3.6244,3.62,0,0,0,3.6407,3.6393,3.6396,3.6387,3.6376,3.6362,3.6378,3.6352,3.6349,3.6335,3.6337,3.6336,3.6246,3.6244,3.6203,3.6181,0,0,0,3.6404,3.6393,3.6388,3.6386,3.6378,3.6363,3.6364,3.6352,3.6352,3.6338,3.6336,3.6246,3.6245,3.6206,3.6185,3.6153,0,0,0,3.6395,3.6347,3.6387,3.6335,3.6378,3.6337,3.6364,3.6334,3.6316,3.6337,3.6246,3.6244,3.6206,3.6188,3.6156,3.6124,3.611,0,0,3.6326,3.6338,3.6309,3.6344,3.6294,3.6341,3.6283,3.6279,3.6288,3.6257,3.6255,3.6202,3.6186,3.6154,3.6034,3.6023,0,0,0,3.6282,3.6261,3.6251,3.6236,3.6234,3.623,3.6236,3.6235,3.621,3.6271,3.6183,3.6173,3.6155,3.614,3.613,3.6116,3.6237,3.6237,3.6237,3.6163,3.6182,3.6135,3.6152,3.6136,3.6146,3.6134,3.6134,3.6154,3.6133,3.6123,3.6049,3.6031,3.6024,3.6009,3.6109,3.6108,3.6108,3.6108,3.6064,3.6037,3.6069,3.6036,3.6055,3.6025,3.6033,3.6049,3.6023,3.6057,3.6042,3.6077,3.6011,3.5998,3.6105,3.6105,3.6106,3.6106,3.6106,3.5988,3.5978,3.598,3.5962,3.5945,3.5963,3.5939,3.5956,3.5972,3.5958,3.595,3.5951,3.5953,3.5953,3.5953,3.5953,3.5952,3.5952,3.5952,3.5908,3.5912,3.589,3.5886,3.588,3.5874,3.5885,3.5878,3.5875,3.589,3.589,3.5912,3.6002,3.6024,3.5948,3.5949,3.5949,3.595,3.595,3.58,3.5828,3.5795,3.5789,3.5787,3.5769,3.5794,3.578,3.5777,3.5764,3.5791,3.5855,3.5866,3.5874,3.5893,3.5787,3.5787,3.5787,3.5787,3.5735,3.5745,3.5716,3.5705,3.5697,3.5717,3.5677,3.5686,3.5698,3.5697,3.5715,3.5741,3.5749,3.5756,3.5767,3.5784,3.5653,3.5653,3.5653,3.567,3.568,3.5643,3.5659,3.5659,3.5658,3.5623,3.5608,3.5627,3.5648,3.5697,3.5703,3.5745,3.5758,3.5777,3.5793,3.5825,0,0]}]]